OneWeb SL0241

operational
NORAD ID: 48773 Int'l Des: 2021-045 Owner: ONEWEBN Country: UK Constellation: oneweb
LEOCIRCULARPOLARONEWEB_TYPE

About OneWeb SL0241

Description loading...

Live Position

Loading 3D Globe...

Upcoming Passes

Altitude History

Altitude vs Time

uPlot chart will show altitude changes over time

Two-Line Element Set

1 48773U 21045G 25305.46971494 .00000049 00000-0 95412-4 0 9998
2 48773 87.8961 304.6593 0002314 94.6778 265.4617 13.15549329214393
Epoch: Nov 1, 2025 • Age: 23 hours

Current Status

Altitude 1230.0 km
Velocity 7.24 km/s
Sub-Earth Point -71.37°S, 96.67°E
Launch Date May 28, 2021
Age 4.4 years
Type internet

Technical Details

Classification Payload
Mass 148.00 kg
Dry Mass 140.00 kg
Total Mass 148.00 kg
Length 1.30 m
Diameter 1.00 m
Span 5.00 m
Shape Trapezoid+2 pan
Manufacturer ONEWUS
Bus Type ARROW
Phase Status In Orbit
Owner/State ONEWEBN/UK

Large Constellations

Loading constellations...